Location: St. Louis
(38.6270°N, 90.1994°W)
Time: 16:35:37
(UTC-06:00)

Courier 1B - Pass Details

Date: 06 December 2021
Orbit: 962 x 1209 km, 28.3° (Epoch: 26 January)

Event Time Altitude Azimuth Distance (km) Brightness Sun altitude
Rises 18:36:00 0° 260° (W) 4,012 12.2 -22.2°
Reaches altitude 10° 18:39:10 10° 251° (WSW) 3,014 11.2 -22.8°
Maximum altitude 18:45:35 32° 191° (SSW) 1,757 9.0 -24.0°
Enters shadow 18:49:25 20° 144° (SE) 2,244 9.1 -24.7°
